Location: La Roque
(43.7159°N, 5.3095°E)
Time: 12:21:45
(UTC+00:00)

Daily predictions for brighter satellites

Satellite Brightness Start Highest point End
(mag) Time Altitude Azimuth Time Altitude Azimuth Time Altitude Azimuth
ISS -2.5 19:35:51 10° NW 19:39:01 35° NNE 19:42:09 10° E
SPOT 3 Rocket 4.4 19:34:31 10° SE 19:39:10 34° ENE 19:43:50 10° N
Cosmos 1825 2.8 19:35:43 10° SSW 19:39:24 59° W 19:43:07 10° N
IGS 5A 4.2 19:36:46 10° SE 19:40:34 36° ENE 19:44:24 10° N
Meteor 2-2 Rocket 4.3 19:35:45 10° N 19:41:35 88° E 19:47:17 10° S
BREEZE-M DEB (TANK) 4.4 19:27:15 10° W 19:42:25 60° NNW 19:46:25 10° ENE
Cosmos 2058 3.0 19:40:02 10° S 19:44:12 85° W 19:48:25 10° N
Cosmos 1980 Rocket 2.3 19:39:21 10° NNW 19:44:58 65° ENE 19:50:33 10° SE
Cosmos 2369 3.7 19:39:37 10° NNW 19:45:19 87° ENE 19:50:58 10° SSE
RESURS DK-1 2.3 19:45:30 10° SSW 19:49:39 84° ESE 19:53:49 10° NNE
Cosmos 2221 2.5 19:46:03 10° N 19:50:23 83° E 19:54:43 10° S
ERBS 3.1 19:47:46 10° WNW 19:50:50 42° SW 19:53:54 10° SSE
COSMOS 2406 4.1 19:47:24 10° SW 19:52:57 55° WNW 19:58:35 10° NNE
BREEZE-M DEB (TANK) 3.0 19:50:20 10° SW 19:53:22 56° SE 20:02:28 10° ENE
IRS-1A Rocket 4.3 19:49:38 10° SSE 19:55:10 89° E 20:00:42 10° NNW
Cosmos 2322 Rocket 3.9 19:51:07 10° N 19:55:15 20° NE 19:59:21 10° E
Cosmos 1689 Rocket 4.5 19:54:44 10° NNW 19:57:06 25° WNW 19:59:26 10° SW
MOS 1 4.4 19:53:48 10° SSE 19:59:27 82° WSW 20:05:09 10° NNW
BREEZE-M DEB (TANK) 3.6 19:57:03 10° WNW 20:00:04 64° NNE 20:08:44 10° ESE
Cosmos 1538 Rocket 4.1 19:55:21 10° S 20:00:26 56° ESE 20:05:31 10° NNE
Resurs 01 Rocket 1.7 19:58:47 10° SSE 20:03:10 65° ENE 20:07:35 10° N
Cosmos 2151 3.5 20:01:06 10° SSE 20:05:02 39° E 20:09:01 10° NNE
Cosmos 2098 Rocket 2.3 20:03:20 10° S 20:06:20 64° E 20:09:51 10° NNE
ERS-2 2.0 20:02:54 10° NNE 20:06:35 86° ESE 20:10:12 10° SSW
Gbstr 26 Del rocket 3.9 20:05:38 10° NW 20:09:07 36° NNE 20:12:47 10° E
Meteor 2-3 Rocket 4.2 20:04:57 10° SSE 20:10:09 40° E 20:15:27 10° NNE
Ariane Rocket 3.5 20:12:33 10° S 20:17:34 61° WSW 20:22:36 10° NNW
SL-16 R/B 3.0 20:18:53 10° NNW 20:24:12 39° ENE 20:28:03 17° ESE
Cosmos 1782 3.8 20:24:41 10° NNE 20:28:17 30° ENE 20:30:02 21° ESE
Cosmos 371 Rocket 3.3 20:24:11 10° NNW 20:29:00 80° WSW 20:32:51 16° SSE
ARIANE 5 R/B 3.5 20:26:51 19° ESE 20:29:24 35° ENE 20:33:27 10° N
GRACE-FO 1 4.5 20:28:35 10° N 20:32:13 86° E 20:35:04 16° S
GRACE-FO 2 4.5 20:29:02 10° N 20:32:40 87° E 20:35:30 16° S
Cosmos 1271 Rocket 3.1 20:31:00 10° N 20:34:53 49° ENE 20:36:55 25° SE
SPOT 1/Viking Rocket 3.5 20:31:18 16° SSE 20:35:28 80° ENE 20:40:43 10° NNW
USA 276 3.0 20:33:43 10° NW 20:36:46 44° NNE 20:38:32 21° E
Cosmos 2195 Rocket 4.4 20:31:12 10° S 20:37:15 66° E 20:43:18 10° NNE
Cosmos 1076 Rocket 4.4 20:33:16 10° SSW 20:37:30 51° WNW 20:41:46 10° N
BREEZE-M DEB (TANK) 2.6 20:34:49 10° WNW 20:37:52 85° NNE 20:43:14 18° ESE
Atlas Centaur 2 3.4 20:37:41 10° SSW 20:39:03 12° S 20:39:03 12° S
Cosmos 1766 Rocket 4.3 20:37:41 24° SE 20:39:28 33° E 20:43:24 10° NNE
Cosmos 1151 Rocket 3.8 20:37:53 10° N 20:41:55 36° ENE 20:43:40 26° ESE
ATLAS 2AS CENTAUR R/B 4.3 20:36:50 10° WSW 20:44:16 43° NW 20:51:33 10° NNE
Cosmos 923 Rocket 4.0 20:41:32 10° S 20:46:48 64° ESE 20:52:06 10° NNE
Terra 2.7 20:47:56 24° ESE 20:49:59 34° ENE 20:54:16 10° N
ATLAS 3B R/B 3.1 20:44:22 10° NW 20:51:25 63° WSW 20:56:42 20° SSE
SPOT 5 3.0 20:50:48 29° SE 20:52:37 47° ENE 20:56:49 10° N
Cosmos 1092 Rocket 4.0 20:49:03 10° S 20:55:18 86° W 21:01:40 10° N
Cosmos 2082 Rocket 4.0 20:50:24 10° WSW 20:55:28 34° NW 21:00:36 10° N
USA 267 3.9 20:49:53 10° ENE 20:55:29 30° SE 20:59:01 19° S
NOSS 2-1 (C) 4.5 21:00:51 21° ENE 21:00:51 21° ENE 21:02:17 10° NE
Cosmos 2056 Rocket 4.3 20:54:52 10° N 20:59:51 38° ENE 21:02:09 26° ESE
BREEZE-M DEB (TANK) 4.0 21:00:06 10° WNW 21:02:08 23° NNW 21:03:12 15° NE
ERS-1 Rocket 3.0 21:00:35 30° SE 21:02:59 64° ENE 21:07:58 10° N
SL-27 R/B 3.9 21:06:23 23° ENE 21:06:23 23° ENE 21:08:32 10° NE
Cosmos 332 Rocket 4.2 21:01:29 10° NNW 21:06:18 60° WSW 21:08:58 26° S
NOSS 2-1 (D) 4.2 21:08:17 26° ENE 21:08:17 26° ENE 21:10:04 10° NE
Cosmos 2360 Rocket 3.0 21:02:19 10° NNW 21:07:35 39° ENE 21:10:08 26° ESE
Cosmos 2026 Rocket 4.0 21:02:18 12° S 21:08:18 85° W 21:14:36 10° N
GP-B 3.3 21:09:22 10° N 21:13:48 71° W 21:16:14 26° SSW
ISS -3.1 21:12:39 10° WNW 21:15:53 42° SW 21:15:56 42° SW
Spot 2 Rocket 3.7 21:14:48 27° S 21:17:36 66° WSW 21:22:42 10° NNW
Cosmos 2333 Rocket 3.7 21:13:18 10° N 21:17:58 25° NE 21:20:38 18° E
Cosmos 2112 Rocket 3.9 21:17:49 21° SSW 21:21:25 82° ESE 21:26:43 10° NNE
Cosmos 1371 Rocket 4.2 21:16:07 10° NNW 21:21:29 64° ENE 21:23:22 39° SE
Cosmos 1680 Rocket 3.5 21:17:27 15° SSW 21:21:55 85° WNW 21:27:13 10° NNE
Cosmos 1812 2.7 21:18:47 10° N 21:22:37 64° E 21:23:03 58° ESE
Cosmos 220 Rocket 4.0 21:20:31 10° NNW 21:24:52 74° ENE 21:25:50 52° SE
Okean 3 Rocket 3.6 21:24:58 34° SSW 21:26:55 79° W 21:31:27 10° N
Cosmos 1980 Rocket 4.3 21:24:33 10° WNW 21:28:23 19° W 21:32:13 10° SW
Cosmos 292 Rocket 4.4 21:28:07 10° N 21:32:39 41° ENE 21:33:40 36° E
Cosmos 2322 Rocket 2.2 21:34:17 10° NNW 21:39:54 73° WSW 21:41:46 43° S
Resurs 01 Rocket 4.3 21:38:09 10° WSW 21:40:06 13° W 21:42:03 10° WNW
Cosmos 1408 Rocket 3.4 21:40:12 64° SSE 21:40:47 76° E 21:45:07 10° NNE
Cosmos 1743 Rocket 4.2 21:42:22 41° E 21:42:22 41° E 21:46:23 10° NNE
Cosmos 2084 3.7 21:48:52 27° SW 21:50:55 64° NW 21:55:04 10° NNE
Cosmos 1553 Rocket 4.1 21:47:03 10° NNW 21:53:03 66° W 21:55:36 36° SSW
Cosmos 2266 Rocket 3.9 21:53:30 47° SSE 21:55:17 70° E 22:01:29 10° NNE
Gbstr 26 Del rocket 3.3 21:52:15 10° WNW 21:55:26 46° WSW 21:55:26 46° WSW
Cosmos 1862 3.8 21:57:03 49° WSW 21:57:38 54° W 22:01:33 10° N
Cosmos 2219 Rocket 2.9 21:56:13 10° NNW 22:01:31 42° ENE 22:02:58 35° E
Cosmos 1624 Rocket 4.1 21:56:46 10° NNW 22:01:56 65° WSW 22:02:57 52° SSW
NOSS 2-1 (E) 3.8 22:05:22 46° NNW 22:05:22 46° NNW 22:08:25 10° NNE
ARIANE 5 R/B 4.4 22:04:24 20° SW 22:05:54 24° W 22:09:31 10° NW
Cosmos 2228 Rocket 3.5 22:01:58 10° N 22:06:05 48° ENE 22:06:05 48° ENE
Cosmos 1515 Rocket 3.6 22:02:00 10° NNW 22:06:24 66° W 22:06:43 64° WSW
H-2A R/B 3.6 22:02:41 10° N 22:06:53 69° WNW 22:07:15 65° WSW
SL-16 R/B 3.4 22:03:11 10° NW 22:08:12 33° WSW 22:09:55 27° SW
COSMOS 2455 2.8 22:09:10 56° SE 22:09:50 59° ESE 22:15:45 10° NE
NOSS 3-1 (C) 4.2 22:03:12 10° NW 22:10:43 71° NE 22:14:30 37° SE
Cosmos 2333 4.2 22:05:36 10° NNW 22:11:12 69° ENE 22:12:13 56° ESE
Cosmos 1420 Rocket 3.9 22:07:38 10° NNW 22:12:59 79° WSW 22:13:43 65° S
Cosmos 1655 Rocket 4.1 22:12:44 40° SSW 22:15:11 75° W 22:21:36 10° N
Cosmos 883 Rocket 4.4 22:09:14 10° N 22:15:29 81° E 22:16:57 55° SSE
COSMOS 2428 3.3 22:10:50 10° NNW 22:16:18 45° ENE 22:17:35 39° E
Spot 4 4.1 22:21:45 54° E 22:21:54 55° ENE 22:26:37 10° N
S3M 4.4 22:17:06 10° NNW 22:23:22 59° W 22:25:25 41° SSW
USA 229 DEB 4.3 22:17:39 10° NNW 22:24:50 57° NE 22:28:16 33° ESE
USA 229 4.3 22:17:45 10° NNW 22:24:56 56° NE 22:28:23 33° ESE
Terra 3.2 22:26:49 26° WSW 22:27:45 27° W 22:31:49 10° NW
ATLAS 5 CENTAUR R/B 3.3 22:23:00 10° NNW 22:28:11 40° NE 22:30:39 28° E
COSMOS 2487 4.3 22:31:49 26° NNE 22:31:49 26° NNE 22:33:27 10° NNE
Cosmos 1452 Rocket 3.4 22:27:14 10° NNW 22:32:31 79° ENE 22:32:49 76° ESE
Cosmos 1707 Rocket 4.5 22:28:44 10° N 22:32:18 38° NE 22:32:18 38° NE
ALOS 2 3.5 22:33:57 39° ENE 22:33:57 39° ENE 22:37:44 10° N
USA 267 3.2 22:32:20 10° NE 22:38:55 82° NW 22:45:27 10° WSW
Meteor 1-27 Rocket 3.9 22:37:53 10° NNW 22:43:27 59° W 22:44:14 54° SW
NOSS 3-1 (A) 4.2 22:37:53 10° NW 22:45:25 72° NE 22:48:48 40° SE
Cosmos 1805 Rocket 3.9 22:49:13 62° NW 22:49:13 62° NW 22:53:14 10° N
Nadezhda 2 Rocket 4.4 22:49:09 65° SSE 22:50:01 75° E 22:56:25 10° N
Cosmos 2360 Rocket 3.2 22:46:30 10° NW 22:51:28 33° WSW 22:51:53 32° WSW
Meteor 1-20 Rocket 4.0 22:54:51 77° SSW 22:55:16 85° W 23:00:59 10° N
Cosmos 1110 Rocket 4.0 22:53:14 10° NNW 22:58:35 70° ENE 22:58:40 70° ENE
Cosmos 2333 Rocket 2.4 22:57:03 10° NNW 23:02:35 56° WSW 23:02:38 56° WSW
Cosmos 1331 Rocket 4.0 22:58:46 10° NNW 23:03:58 70° ENE 23:03:58 70° ENE
Cosmos 1244 Rocket 4.3 23:03:47 72° S 23:04:29 89° E 23:10:43 10° N
USA 234 3.2 23:10:02 49° ESE 23:12:01 82° NE 23:18:36 10° NW
Cosmos 2322 4.1 23:07:18 10° NW 23:12:44 49° WSW 23:12:44 49° WSW
Nimbus 7 Rocket 4.4 23:07:51 10° NNE 23:13:51 64° ESE 23:14:01 63° ESE
NOSS 0 Rocket 3.9 23:08:56 10° NNW 23:15:11 74° ENE 23:16:01 65° ESE
Cosmos 2297 Rocket 2.9 23:17:11 40° E 23:17:11 40° E 23:21:46 10° NE
Lacrosse 5 3.2 23:21:59 29° ENE 23:21:59 29° ENE 23:24:41 10° ENE
Cosmos 2237 Rocket 2.6 23:17:45 10° NNW 23:23:21 55° ENE 23:24:02 52° E
Cosmos 2084 Rocket 4.5 23:20:31 10° NNW 23:24:07 42° NNE 23:24:07 42° NNE
Meteor 1-18 Rocket 4.1 23:20:53 10° NNW 23:26:46 82° W 23:26:57 81° SW
Cosmos 1470 Rocket 4.4 23:29:03 45° NNE 23:29:03 45° NNE 23:32:11 10° NNE
Cosmos 2227 Rocket 3.0 23:28:53 37° E 23:28:53 37° E 23:33:23 10° NE
Sich 1 4.4 23:28:46 32° WNW 23:28:46 32° WNW 23:32:22 10° N
Cosmos 1633 Rocket 3.8 23:33:06 49° NNW 23:33:06 49° NNW 23:36:33 10° N
Cosmos 2219 Rocket 3.4 23:40:29 10° NW 23:44:40 29° W 23:44:40 29° W
Cosmos 1269 Rocket 4.0 23:50:05 78° NNE 23:50:05 78° NNE 23:55:03 10° NNE
SL-16 R/B 3.5 23:45:25 10° N 23:50:34 34° NE 23:52:42 26° E
PSLV R/B 4.1 23:48:08 10° NNE 23:52:12 61° NE 23:52:12 61° NE
Resurs 1-4 Rocket 4.2 23:51:54 10° NE 23:54:45 14° E 23:55:13 14° E
